www.pogodaiklimat.ru

Погода и климат >> Архив погоды >> Бангладеш >> Faridpur


ПОГОДА в Faridpur

  • Прогноз погоды в Faridpur
  • Монитор погоды в Faridpur
  • Климат города

АРХИВ ПОГОДЫ в Faridpur

Время (UTC), дата Ветер
(напр.,м/с)
 
Видим.   Явления Облачность Т
(С)
Тd
(С)
f
(%)
Тe
(С)
Тes
(С)
Комфортность P
(гПа)
Po
(гПа)
Тmin
(С)
Tmax
(С)
R
(мм)
R24
(мм)
S
(см)
18 16.06 штиль 0 6000 м {гроза, дождь} 10/3 540 м
[Sc As trans]
+25.0 +24.0 94 +34 +34 очень
душно
1000.0 999.1 2
21 16.06 штиль 0 6000 м 10/4 540 м
[Sc As op]
+25.6 +25.0 96 +36 +36 очень
душно
999.4 998.5
00 17.06 штиль 0 6000 м 10/5 540 м
[Sc As op]
+27.4 +27.0 98 +43 +43 опасность
перегрева
999.2 998.3
03 17.06 ЮЗ 1 6000 м 6/0
[Ac trans]
+30.7 +26.0 76 +46 +55 опасность
перегрева
1000.1 999.2 +23.7
06 17.06 Ю 1 6000 м 5/0
[Ac trans]
+34.2 +28.0 70 +55 +73 опасность
перегрева
999.7 998.8
09 17.06 Ю 1 6000 м 5/0
[Ac trans]
+34.2 +28.0 70 +55 +65 опасность
перегрева
998.5 997.6
12 17.06 ЮВ 1 6000 м ясно +32.0 +28.0 79 +52 +53 опасность
перегрева
997.0 996.1 +34.6
15 17.06 штиль 0 6000 м ясно +30.2 +28.0 88 +50 +50 опасность
перегрева
999.1 998.2
18 17.06 штиль 0 6000 м {гроза, дождь} 5/0
[Ac trans]
+25.9 +24.0 89 +36 +36 очень
душно
999.5 998.6 9
21 17.06 штиль 0 6000 м ясно +26.7 +26.0 96 +40 +40 очень
душно
999.0 998.1
00 18.06 ЮВ 1 6000 м 4/4 480 м
[Sc]
+28.5 +28.0 97 +47 +47 опасность
перегрева
998.8 997.9
03 18.06 Ю 1 6000 м 4/4 540 м
[Sc]
+32.0 +28.0 79 +52 +61 опасность
перегрева
999.1 998.2 +24.5
06 18.06 Ю 1 6000 м 4/4 540 м
[Sc diur, vesp]
+34.3 +27.0 66 +52 +68 опасность
перегрева
999.5 998.6
09 18.06 Ю 1 6000 м 4/4 540 м
[Sc diur, vesp]
+35.8 +29.0 68 +59 +69 опасность
перегрева
997.7 996.8
12 18.06 ЮВ 1 6000 м ясно +34.3 +29.0 74 +58 +59 опасность
перегрева
996.5 995.6 +36.0
15 18.06 Ю 1 6000 м 3/0
[Ac lent]
+31.6 +30.0 91 +58 +58 опасность
перегрева
998.1 997.2
18 18.06 штиль 0 6000 м 3/0
[Ac lent]
+30.5 +30.0 97 +56 +56 опасность
перегрева
999.4 998.5
21 18.06 штиль 0 6000 м 4/0
[Ac lent]
+30.0 +29.0 94 +52 +52 опасность
перегрева
998.9 998.0
00 19.06 Ю 1 6000 м 6/3 540 м
[Sc Ac lent]
+29.6 +29.0 97 +52 +52 опасность
перегрева
998.4 997.5
03 19.06 В 1 5000 м гроза, ливневой дождь 10/5 540 м
[Cb cap As op]
+25.0 +25.0 100 +36 +37 очень
душно
1001.6 1000.7 +24.5 8
06 19.06 В 1 6000 м гроза без осадков {дождь} 10/5 540 м
[Cb cap As op]
+25.8 +24.0 90 +36 +38 очень
душно
1001.6 1000.7 8
09 19.06 ЮЗ 1 6000 м {гроза} 8/3 540 м
[Cb calv Ac lent]
+25.7 +22.0 80 +33 +38 очень
душно
999.4 998.5
12 19.06 ЮВ 1 5000 м {гроза} 8/3 540 м
[Cb calv Ac lent]
+26.1 +24.0 88 +36 +36 очень
душно
998.7 997.8 +26.4
15 19.06 ЮВ 1 6000 м 4/0
[Ac trans]
+25.5 +24.0 91 +35 +35 очень
душно
1000.2 999.3
18 19.06 штиль 0 6000 м 3/0
[Ac trans]
+25.2 +24.0 93 +35 +35 очень
душно
1001.3 1000.4
21 19.06 ЮВ 1 6000 м 9/4 540 м
[Sc Ac As]
+25.6 +25.0 96 +36 +36 очень
душно
1001.6 1000.7
00 20.06 ЮВ 1 6000 м 10/5 540 м
[Sc As trans]
+26.0 +25.0 94 +37 +37 очень
душно
1001.7 1000.8
03 20.06 ЮВ 1 6000 м 6/0
[Ac trans]
+29.0 +27.0 89 +46 +55 опасность
перегрева
1003.0 1002.1 +24.5
06 20.06 ЮЗ 1 6000 м 10/5 540 м
[Sc As trans]
+33.2 +27.0 70 +51 +56 опасность
перегрева
1003.0 1002.1
12 20.06 штиль 0 6000 м {дождь} 6/0
[Ac lent]
+29.3 +26.0 82 +44 +44 опасность
перегрева
1000.2 999.3 +33.4 6
15 20.06 штиль 0 6000 м 6/0
[Ac lent]
+27.8 +27.0 95 +44 +44 опасность
перегрева
1002.6 1001.7
18 20.06 штиль 0 6000 м 4/0
[Ac lent]
+27.3 +26.0 93 +41 +41 опасность
перегрева
1002.8 1001.9
21 20.06 штиль 0 6000 м 5/0
[Ac lent]
+29.6 +26.0 81 +44 +44 опасность
перегрева
1002.6 1001.7
00 21.06 штиль 0 6000 м 4/0
[Ac lent]
+26.5 +26.0 97 +40 +40 очень
душно
1002.5 1001.6
03 21.06 штиль 0 6000 м 3/3 540 м
[Sc]
+32.4 +27.0 73 +50 +62 опасность
перегрева
1003.8 1002.9 +25.8
06 21.06 ЮЗ 1 6000 м 6/3 540 м
[Sc diur, vesp]
+33.5 +29.0 77 +57 +71 опасность
перегрева
1003.3 1002.4
09 21.06 ЮЗ 1 6000 м 5/5 540 м
[Sc diur, vesp]
+33.5 +29.0 77 +57 +64 опасность
перегрева
1001.1 1000.2
12 21.06 штиль 0 6000 м 4/0
[Ac trans]
+31.7 +29.0 86 +55 +56 опасность
перегрева
1000.0 999.1 +34.2
15 21.06 Ю 1 6000 м 3/0
[Ac lent]
+29.5 +28.0 92 +49 +49 опасность
перегрева
1001.7 1000.8
18 21.06 Ю 1 6000 м 3/0
[Ac lent]
+28.4 +26.0 87 +43 +43 опасность
перегрева
1001.7 1000.8
21 21.06 штиль 0 6000 м 4/0
[Ac lent]
+27.8 +26.0 90 +42 +42 опасность
перегрева
1001.9 1001.0
00 22.06 штиль 0 6000 м 5/0
[Ac lent]
+27.1 +26.0 94 +41 +41 опасность
перегрева
1002.1 1001.2
03 22.06 Ю 1 6000 м 3/3 540 м
[Sc diur, vesp]
+31.5 +27.0 77 +49 +60 опасность
перегрева
1004.0 1003.1 +26.4
06 22.06 Ю 1 6000 м 6/3 540 м
[Sc diur, vesp Ac trans]
+33.6 +29.0 77 +57 +72 опасность
перегрева
1003.1 1002.2
09 22.06 Ю 1 6000 м 5/5 540 м
[Sc diur, vesp]
+35.2 +25.0 56 +49 +56 опасность
перегрева
1000.0 999.1
12 22.06 ЮВ 1 6000 м 5/3 540 м
[Sc diur, vesp Ac lent]
+32.5 +27.0 73 +51 +51 опасность
перегрева
999.7 998.8 +35.5
15 22.06 ЮВ 1 6000 м 4/0
[Ac trans]
+29.7 +27.0 85 +47 +47 опасность
перегрева
1001.2 1000.3
18 22.06 штиль 0 6000 м 4/0
[Ac trans]
+28.5 +28.0 97 +47 +47 опасность
перегрева
1002.5 1001.6
21 22.06 штиль 0 6000 м 3/0
[Ac trans]
+28.0 +27.0 94 +44 +44 опасность
перегрева
1001.8 1000.9
00 23.06 штиль 0 6000 м 3/0
[Ac trans]
+27.3 +26.0 93 +41 +42 опасность
перегрева
1001.0 1000.1
03 23.06 Ю 1 6000 м 8/6 540 м
[Sc Ac trans]
+31.0 +27.0 79 +48 +53 опасность
перегрева
1003.1 1002.2 +26.5
06 23.06 штиль 0 5000 м гроза, ливневой дождь 10/6 480 м
[Cb cap As op]
+29.0 +27.0 89 +46 +48 опасность
перегрева
1002.4 1001.5 2
09 23.06 ЮЗ 1 5000 м {гроза, дождь} 8/4 540 м
[Cb calv Ac As]
+30.0 +26.0 79 +45 +50 опасность
перегрева
1000.4 999.5
12 23.06 ЮЗ 1 5000 м {гроза, дождь} 8/0
[Ac lent]
+29.3 +26.0 82 +44 +44 опасность
перегрева
999.5 998.6 +32.6 3
15 23.06 Ю 1 6000 м 8/3 540 м
[Sc Ac lent]
+28.2 +26.0 88 +42 +42 опасность
перегрева
1001.2 1000.3

 

Местоположение метеостанции Faridpur (Бангладеш): широта 23.60 долгота 89.85 высота над уровнем моря 8 м.

В архиве по умолчанию представлена погода в Faridpur за последнюю неделю. Архивные данные за месяц целиком и за предыдущие месяцы, начиная с января 2011 года, Вы можете получить, выбрав интересующий диапазон дат из раскрывающегося списка и нажав кнопку "Ввод!".


*Определитесь, кто Вы:
робот инопланетянин человек

Внимание! Время в таблицах - всемирное. Для получения местного времени необходимо прибавить поправку, которая в Faridpur равна 6.5 ч.

Смотрите также архив погоды в соседних городах и на ближайших метеорологических станциях:

Погода в Dhaka (Бангладеш) (57 км)
Погода в Madaripur (Бангладеш) (59 км)
Погода в Gopalganj Sadar (Бангладеш) (66 км)
Погода в Kumarkhali (Бангладеш) (72 км)
Погода в Tangail (Бангладеш) (73 км)
Погода в Jessore (Бангладеш) (84 км)
Погода в Chandpur (Бангладеш) (94 км)
Погода в Tarash (Бангладеш) (97 км)
Погода в Khulna (Бангладеш) (97 км)
Погода в Ishurdi (Бангладеш) (100 км)

Пояснения к столбцам:

Ветер - указаны скорость ветра в м/с - средняя за 10 мин, порывы в срок и между сроками (в фигурных скобках) и направление, откуда дует ветер: С - северный, СВ - северо-восточный, В - восточный, ЮВ - юго-восточный, Ю - южный, ЮЗ - юго-западный, З - западный, СЗ - северо-западный.
Видимость - горизонтальная дальность видимости в метрах или километрах. При видимости от 1 до 10 км при отсутствии осадков обычно наблюдается дымка, при ухудшении видимости до 1 км и менее - туман. В сухую погоду видимость может ухудшаться дымом, пылью или мглою.
Явления - указаны атмосферные явления, наблюдавшиеся в срок или в последний час перед сроком; фигурными скобками обозначены явления, наблюдавшиеся между сроками (за 1-3 часа до срока); квадратными скобками обозначены град или гололедные отложения с указанием их диаметра в мм.
Облачность - указаны через наклонную черту общая и нижняя облачность в баллах и высота нижней границы облаков в метрах; квадратными скобками обозначены формы облаков: Ci - перистые, Cs - перисто-слоистые, Cc - перисто-кучевые, Ac - высококучевые, As - высокослоистые, Sc - слоисто-кучевые, Ns - слоисто-дождевые, Cu - кучевые, Cb - кучево-дождевые. Подробнее классификацию облаков см. в Атласе облаков (PDF).
T - Температура воздуха - температура, измеренная на высоте 2 м над землей.
Td - Температура точки росы - температура, при понижении до которой содержащийся в воздухе водяной пар достигнет насыщения.
f - Относительная влажность воздуха - влажноcть воздуха, измеренная на высоте 2 м над землей.
Te - Эффективная температура - температура, которую ощущает одетый по сезону человек в тени. Характеристика душности погоды. При расчете учитывается влияние влажности воздуха и скорости ветра на теплоощущения человека.
Tes - Эффективная температура на солнце - температура, которую ощущает человек, с поправкой на солнечный нагрев. Характеристика знойности погоды. Зависит от высоты солнца над горизонтом, облачности и скорости ветра. Ночью, в пасмурную погоду, а также при ветре 12 м/с и более поправка равна нулю.
P - Атмосферное давление - приведенное к уровню моря атмосферное давление.
Po - Атмосферное давление - измеренное на уровне метеостанции атмосферное давление.
Tmin - Минимальная температура - минимум температуры воздуха на высоте 2 м над землей.
Tmax - Максимальная температура - максимум температуры воздуха на высоте 2 м над землей.
R - Количество осадков - Количество выпавших осадков за период времени, мм. При наведении курсора мыши на число - период времени, за который выпало указанное количество осадков.
R24 - Количество осадков - Количество выпавших осадков за 24 часа, мм.
S - Снежный покров - Высота снежного покрова, см. При наведении курсора мыши на число - состояние снежного покрова и степень покрытия местности в баллах.